This is the latest recevied weather packets stored in our database for station/object KB3KAV. If no packets are shown the sender has not sent any weather packets the latest 10 day(s).
| Time | Temp. | Humidity | Pressure | Rain* | Wind** | Luminosity | Snow |
|---|---|---|---|---|---|---|---|
| 1778185160 | 15° C | 40% | 1037.2 hPa | 0 mm | - | 180 W/m² | - |
| 1778184559 | 14.44° C | 41% | 1037.1 hPa | 0 mm | - | 104 W/m² | - |
| 1778183956 | 15° C | 41% | 1037.5 hPa | 0 mm | - | 124 W/m² | - |
| 1778183351 | 15° C | 37% | 1037.2 hPa | 0 mm | - | 123 W/m² | - |
| 1778182749 | 15° C | 36% | 1037.5 hPa | 0 mm | - | 223 W/m² | - |
| 1778182148 | 15.56° C | 34% | 1037.6 hPa | 0 mm | - | 840 W/m² | - |
| 1778181547 | 15° C | 35% | 1037.5 hPa | 0 mm | - | 740 W/m² | - |
| 1778180945 | 15° C | 36% | 1037.6 hPa | 0 mm | - | 252 W/m² | - |
| 1778180342 | 15.56° C | 36% | 1037.6 hPa | 0 mm | - | 256 W/m² | - |
| 1778179741 | 16.11° C | 34% | 1037.7 hPa | 0 mm | - | 542 W/m² | - |
| 1778179142 | 15.56° C | 40% | 1038 hPa | 0 mm | - | 838 W/m² | - |
| 1778178536 | 14.44° C | 37% | 1038.1 hPa | 0 mm | - | 217 W/m² | - |
| 1778177934 | 15° C | 37% | 1038.4 hPa | 0 mm | - | 235 W/m² | - |
| 1778177333 | 15° C | 37% | 1038.4 hPa | 0 mm | - | 881 W/m² | - |
| 1778176731 | 15° C | 37% | 1038.4 hPa | 0 mm | - | 866 W/m² | - |
| 1778176126 | 14.44° C | 37% | 1038.6 hPa | 0 mm | - | 214 W/m² | - |
| 1778175527 | 15° C | 38% | 1038.5 hPa | 0 mm | - | 200 W/m² | - |
| 1778174925 | 15° C | 38% | 1038.8 hPa | 0 mm | - | 892 W/m² | - |
| 1778174324 | 14.44° C | 40% | 1039 hPa | 0 mm | - | 336 W/m² | - |
| 1778173724 | 13.89° C | 39% | 1039 hPa | 0 mm | - | 238 W/m² | - |
| 1778173121 | 13.89° C | 39% | 1039.5 hPa | 0 mm | - | 804 W/m² | - |
| 1778172519 | 13.89° C | 43% | 1039.4 hPa | 0 mm | - | 818 W/m² | - |
| 1778171920 | 13.89° C | 40% | 1039.5 hPa | 0 mm | - | 848 W/m² | - |
| 1778171319 | 13.89° C | 39% | 1039.7 hPa | 0 mm | - | 235 W/m² | - |
| 1778170718 | 13.33° C | 43% | 1039.7 hPa | 0 mm | - | 877 W/m² | - |
* Rain latest hour (hover to see other rain measurements)
** Current wind speed in m/s (hover to see current wind gust speed)